Regional Weather Roundup
Issued by NWS

Home | Current Version | Previous Version | Text Only | Print | Product List | Glossary Off
Versions: 1 2 3 4 5 6 7 8 9 10 11 12 13 14 15 16 17 18 19 20 21 22 23 24 25 26 27 28 29 30 31 32 33 34 35 36 37 38 39 40 41 42 43 44 45 46 47 48 49 50

000
ASUS43 KDMX 281708
RWRIA

WEATHER ROUNDUP FOR IOWA
NATIONAL WEATHER SERVICE DES MOINES IA
1200 PM CDT SAT MAY 28 2016

NOTE: "FAIR" INDICATES FEW OR NO CLOUDS BELOW 12,000 FEET WITH NO
SIGNIFICANT WEATHER AND/OR OBSTRUCTIONS TO VISIBILITY.

* - THESE STATIONS ARE NOT NWS STATIONS...THUS NOT UNDER NWS
QUALITY CONTROL.  THEY ALSO DO NOT REPORT WEATHER SUCH
AS PRECIPITATION OR FOG.

IAZ001>003-012>014-020>022-031>034-043>046-281800-
   NORTHWEST IOWA

CITY           SKY/WX    TMP DP  RH WIND       PRES   REMARKS
CARROLL *      MOSUNNY   68  61  77 SW12      29.77S
CHEROKEE *     MOSUNNY   68  61  77 S7        29.76S
DENISON *      PTSUNNY   68  59  73 SW10      29.75S
LE MARS *      CLOUDY    68  59  73 S9        29.76S
ORANGE CITY *  PTSUNNY   66  59  77 S6        29.76S
SHELDON *      PTSUNNY   68  59  73 S10G16    29.75S
SIOUX CITY     CLOUDY    68  59  73 S9        29.74S
SPENCER        CLOUDY    70  61  73 SW9       29.76S
STORM LAKE *   MOSUNNY   70  59  68 S15G21    29.76F
$$

IAZ055>058-069>071-079>083-090>094-281800-
   SOUTHWEST IOWA

CITY           SKY/WX    TMP DP  RH WIND       PRES   REMARKS
ATLANTIC *     PTSUNNY   70  61  73 S15       29.78S
AUDUBON *      PTSUNNY   70  61  73 S10G16    29.79S
CLARINDA *       N/A     68  61  77 MISG      29.82S
COUNCIL BLFS * MOSUNNY   68  59  73 SW12      29.80R
CRESTON *      CLOUDY    64  61  88 SW13      29.82R
HARLAN  *      PTSUNNY   68  59  73 SW15      29.82R
LAMONI         LGT RAIN  67  61  81 SW15G23   29.81R
RED OAK *      PTSUNNY   70  61  73 SW12G18   29.80S
SHENANDOAH *   MOSUNNY   68  61  77 SW9       29.81S
$$

IAZ047>049-059>061-072>074-084-281800-
   CENTRAL IOWA

CITY           SKY/WX    TMP DP  RH WIND       PRES   REMARKS
AMES           CLOUDY    68  62  81 S8        29.78S
ANKENY *       CLOUDY    70  63  78 S10       29.79R
BOONE *        PTSUNNY   68  63  83 SW8       29.78S
CHARITON *     CLOUDY    70  63  78 S16G22    29.80S
DES MOINES     CLOUDY    71  59  65 SW13      29.79R
GRINNELL*      CLOUDY    72  61  68 S9        29.80F
KNOXVILLE *    PTSUNNY   73  63  68 SW10G22   29.78S
MARSHALLTOWN   CLOUDY    70  62  76 S13       29.78S
NEWTON *       CLOUDY    70  63  78 S9        29.80R
PERRY *        CLOUDY    68  63  83 SW8       29.79S
$$

IAZ004>006-015-016-023>025-035-036-281800-
   NORTH CENTRAL IOWA

CITY           SKY/WX    TMP DP  RH WIND       PRES   REMARKS
ALGONA *       PTSUNNY   72  63  73 VRB6G14   29.76F
CLARION *      CLOUDY    72  64  78 S13       29.77S
ESTHERVILLE    LGT RAIN  68  60  75 W6        29.77R
FORT DODGE *   CLOUDY    73  61  64 S8        29.77F
MASON CITY     CLOUDY    68  63  84 S7        29.79F
FOREST CITY *  LGT RAIN  66  61  82 S7        29.78F
WEBSTER CITY * PTSUNNY   72  64  78 S9        29.75S
IOWA FALLS *   CLOUDY    70  64  83 S8        29.80R
$$

IAZ007>011-017>019-026>030-037>042-050>054-066-281800-
   NORTHEAST IOWA

CITY           SKY/WX    TMP DP  RH WIND       PRES   REMARKS
CEDAR RAPIDS   MOSUNNY   76  66  71 S15       29.81S
CHARLES CITY * PTSUNNY   70  68  94 S13       29.80S
CLINTON *      PTSUNNY   79  67  66 S18       29.86R HX  81
DECORAH *      PTSUNNY   70  64  83 S9G16     29.80S
DUBUQUE        PTSUNNY   73  64  73 SW15      29.84S
MONTICELLO *   MOSUNNY   75  64  69 S15       29.82F
OELWEIN *      PTSUNNY   72  64  78 S17       29.82R
WATERLOO       PTSUNNY   73  62  68 S12       29.79R
$$

IAZ064-065-067-068-078-281800-
   EAST CENTRAL IOWA

CITY           SKY/WX    TMP DP  RH WIND       PRES   REMARKS
DAVENPORT      MOSUNNY   78  65  63 S16       29.85S HX  80
IOWA CITY      SUNNY     78  63  59 S15G24    29.83S HX  80
MT. PLEASANT * PTSUNNY   79  68  69 S14G22    29.85S HX  81
MUSCATINE *    PTSUNNY   79  64  61 S17       29.84S HX  81
QUAD CITIES    MOSUNNY   80  65  59 S14G22    29.84S HX  82
$$

IAZ062-063-075>077-085>089-095>099-281800-
   SOUTHEAST IOWA

CITY           SKY/WX    TMP DP  RH WIND       PRES   REMARKS
BURLINGTON     CLOUDY    76  67  73 S14G20    29.86S
FAIRFIELD *      N/A    N/A N/A N/A MISG        N/A
FORT MADISON * PTSUNNY   75  66  73 S14       29.87S
KEOKUK *       PTSUNNY   77  66  69 S16       29.86S
OSKALOOSA *    CLOUDY    73  63  68 S15       29.81F
OTTUMWA        CLOUDY    74  64  71 S13       29.81S
WASHINGTON *   MOSUNNY   77 -33   1 S14G21    29.83F
$$

ABBREVIATIONS USED IN REMARKS
   TC - TEMPERATURES IN CELSIUS
  WCI - WIND CHILL INDEX
   HX - HEAT INDEX
  VSB - VISIBILITY
$$





USA.gov is the U.S. government's official web portal to all federal, state and local government web resources and services.